Weather History for PHOG - May, 2014

Change the Weather History Date:

Tuesday, May 13, 2014

  Actual Average Record
Temperature  
Mean Temperature 73 °F 76 °F  
Max Temperature 76 °F 84 °F 91 °F (1953)
Min Temperature 70 °F 67 °F 56 °F (2012)
Degree Days  
Heating Degree Days 0 0  
Month to date heating degree days 0 0  
Since 1 July heating degree days 0 0  
Cooling Degree Days 8 10  
Month to date cooling degree days 152 130  
Year to date cooling degree days 1262 1056  
Growing Degree Days 22 (Base 50)    
Moisture  
Dew Point 67 °F    
Average Humidity 83    
Maximum Humidity 97    
Minimum Humidity 69    
Precipitation  
Precipitation 0.34 in 0.02 in 1.12 in (2002)
Month to date precipitation 0.52 0.42  
Year to date precipitation 13.45 9.18  
Snow  
Snow 0.00 in - - ()
Month to date snowfall 0.0  
Since 1 July snowfall 0.0  
Snow Depth 0.00 in    
Sea Level Pressure  
Sea Level Pressure 29.98 in    
Wind  
Wind Speed 14 mph (NE)    
Max Wind Speed 20 mph    
Max Gust Speed 23 mph    
Visibility 8 miles    
Events Rain    
T = Trace of Precipitation, MM = Missing Value Source: NWS Daily Summary

Daily Weather History Graph

Daily Weather History Graph

Search for Another Location

Airport or City:

Trip Planner

Search our weather history database for the weather conditions in past years. The results will help you decide how hot, cold, wet, or windy it might be!

Date:

Astronomy

May. 13, 2014 Rise Set
Actual Time 5:48 AM HST 6:55 PM HST
Civil Twilight 5:25 AM HST 7:19 PM HST
Nautical Twilight 4:57 AM HST 7:47 PM HST
Astronomical Twilight 4:28 AM HST 8:16 PM HST
Moon 6:15 PM HST (5/13) 5:02 AM HST (5/13)
Length of Visible Light 13h 53m
Length of Day
13h 06m
Waxing Gibbous, 99% of the Moon is Illuminated
May 13
Waxing Gibbous
May 14
Full
May 21
Last Quarter
May 28
New
Jun 5
First Quarter

Hourly Weather History & Observations

Time (HST) Temp. Dew Point Humidity Pressure Visibility Wind Dir Wind Speed Gust Speed Precip Events Conditions
12:18 AM 71.6 °F 68.0 °F 88% 29.99 in 10.0 mi NNE 11.5 mph - 0.00 in Rain Light Rain
12:33 AM 71.6 °F 68.0 °F 88% 29.98 in 9.0 mi North 12.7 mph - 0.00 in Rain Light Rain
12:46 AM 71.6 °F 68.0 °F 88% 29.98 in 10.0 mi NNE 12.7 mph - 0.00 in Rain Light Rain
12:54 AM 72.0 °F 68.0 °F 87% 29.99 in 9.0 mi NNE 12.7 mph - 0.01 in Rain Rain
1:31 AM 71.6 °F 68.0 °F 88% 29.97 in 10.0 mi NE 12.7 mph - 0.00 in   Mostly Cloudy
1:38 AM 71.6 °F 68.0 °F 88% 29.96 in 10.0 mi NE 19.6 mph 23.0 mph 0.00 in Rain Light Rain
1:54 AM 72.0 °F 69.1 °F 91% 29.98 in 10.0 mi NE 13.8 mph - 0.00 in   Overcast
2:54 AM 71.6 °F 69.8 °F 94% 29.94 in 5.0 mi North 12.7 mph - N/A Rain Rain
3:05 AM 71.6 °F 68.0 °F 88% 29.94 in 9.0 mi NNE 8.1 mph - 0.01 in Rain Light Rain
3:12 AM 71.6 °F 68.0 °F 88% 29.94 in 10.0 mi NNE 12.7 mph - 0.01 in   Overcast
3:25 AM 71.6 °F 68.0 °F 88% 29.95 in 10.0 mi NE 18.4 mph - 0.01 in Rain Light Rain
3:54 AM 71.1 °F 68.0 °F 90% 29.96 in 7.0 mi NE 13.8 mph - 0.02 in Rain Light Rain
4:08 AM 71.6 °F 68.0 °F 88% 29.94 in 10.0 mi NE 15.0 mph - 0.02 in Rain Light Rain
4:54 AM 71.1 °F 68.0 °F 90% 29.96 in 5.0 mi ENE 11.5 mph - 0.06 in Rain Rain
5:23 AM 71.6 °F 68.0 °F 88% 29.95 in 10.0 mi NE 13.8 mph 18.4 mph 0.08 in Rain Light Rain
5:54 AM 71.6 °F 68.0 °F 88% 29.95 in 9.0 mi North 15.0 mph - N/A Rain Light Rain
6:29 AM 71.6 °F 68.0 °F 88% 29.96 in 9.0 mi NE 18.4 mph - 0.00 in Rain Light Rain
6:45 AM 69.8 °F 66.2 °F 88% 29.97 in 3.0 mi NE 13.8 mph - 0.01 in Rain Light Rain
6:54 AM 70.0 °F 66.9 °F 90% 29.99 in 4.0 mi NNE 17.3 mph - 0.01 in Rain Light Rain
7:37 AM 69.8 °F 68.0 °F 94% 29.99 in 2.5 mi NE 17.3 mph - 0.01 in   Overcast
7:52 AM 69.8 °F 68.0 °F 94% 30.00 in 2.0 mi NNE 16.1 mph - 0.03 in Rain Rain
7:54 AM 70.0 °F 68.0 °F 93% 30.01 in 2.0 mi NNE 16.1 mph - 0.03 in Rain Rain
8:13 AM 69.8 °F 68.0 °F 94% 30.00 in 2.0 mi NE 11.5 mph - 0.02 in Rain Light Rain
8:50 AM 69.8 °F 66.2 °F 88% 30.00 in 4.0 mi NNE 8.1 mph - 0.06 in Rain Rain
8:54 AM 70.0 °F 66.9 °F 90% 30.01 in 5.0 mi NNE 13.8 mph - 0.07 in Rain Light Rain
9:54 AM 73.0 °F 66.0 °F 79% 30.02 in 8.0 mi NE 13.8 mph 21.9 mph 0.01 in   Overcast
10:54 AM 75.0 °F 66.0 °F 73% 30.02 in 9.0 mi NE 15.0 mph - 0.00 in   Overcast
10:58 AM 75.2 °F 66.2 °F 73% 30.00 in 10.0 mi NE 16.1 mph - N/A   Overcast
11:54 AM 75.0 °F 64.9 °F 71% 30.01 in 10.0 mi NE 17.3 mph - N/A   Overcast
12:54 PM 73.9 °F 64.9 °F 73% 29.99 in 10.0 mi NE 15.0 mph - N/A   Overcast
1:54 PM 73.0 °F 66.9 °F 81% 29.99 in 10.0 mi NE 12.7 mph - 0.00 in   Overcast
2:54 PM 73.9 °F 66.0 °F 76% 29.97 in 10.0 mi NE 12.7 mph - 0.00 in   Overcast
3:54 PM 73.9 °F 66.9 °F 79% 29.96 in 10.0 mi NNE 18.4 mph - 0.00 in   Overcast
3:56 PM 73.4 °F 66.2 °F 78% 29.94 in 10.0 mi NNE 18.4 mph - N/A   Overcast
3:59 PM 73.4 °F 66.2 °F 78% 29.94 in 10.0 mi NNE 17.3 mph - N/A   Overcast
4:18 PM 71.6 °F 68.0 °F 88% 29.93 in 10.0 mi NNE 17.3 mph - 0.01 in Rain Light Rain
4:28 PM 71.6 °F 66.2 °F 83% 29.93 in 10.0 mi NNE 10.4 mph - 0.01 in Rain Light Rain
4:47 PM 69.8 °F 66.2 °F 88% 29.94 in 10.0 mi NNE 16.1 mph - 0.01 in Rain Light Rain
4:54 PM 71.1 °F 68.0 °F 90% 29.95 in 10.0 mi NE 18.4 mph - 0.01 in Rain Light Rain
5:54 PM 72.0 °F 66.0 °F 81% 29.95 in 10.0 mi NE 8.1 mph - 0.00 in   Mostly Cloudy
6:01 PM 71.6 °F 66.2 °F 83% 29.94 in 10.0 mi NE 6.9 mph - N/A   Scattered Clouds
6:54 PM 69.1 °F 66.0 °F 90% 29.97 in 4.0 mi NE 16.1 mph - 0.00 in Rain Light Rain
7:01 PM 69.8 °F 66.2 °F 88% 29.96 in 6.0 mi NE 12.7 mph - 0.00 in Rain Light Rain
7:41 PM 69.8 °F 66.2 °F 88% 29.97 in 5.0 mi NNE 9.2 mph - 0.00 in Rain Light Rain
7:49 PM 69.8 °F 66.2 °F 88% 29.97 in 7.0 mi North 8.1 mph - 0.00 in Rain Light Rain
7:54 PM 69.1 °F 66.9 °F 93% 29.99 in 9.0 mi North 10.4 mph - 0.00 in Rain Light Rain
8:24 PM 69.8 °F 66.2 °F 88% 29.98 in 9.0 mi NE 8.1 mph - 0.00 in   Overcast
8:34 PM 69.8 °F 66.2 °F 88% 29.98 in 10.0 mi NE 10.4 mph - 0.00 in   Overcast
8:54 PM 69.1 °F 66.9 °F 93% 30.00 in 7.0 mi NNE 8.1 mph - 0.00 in   Overcast
9:09 PM 69.8 °F 66.2 °F 88% 29.99 in 5.0 mi NNE 8.1 mph - 0.00 in Rain Light Rain
9:54 PM 70.0 °F 66.9 °F 90% 30.01 in 10.0 mi NNE 5.8 mph - 0.01 in Rain Light Rain
10:54 PM - - N/A% 30.01 in 5.0 mi NE 5.8 mph - 0.01 in Rain Light Rain
11:01 PM - - N/A% 29.99 in 5.0 mi NE 6.9 mph - 0.01 in Rain Light Rain
11:34 PM - - N/A% 29.99 in 10.0 mi NE 8.1 mph - 0.01 in   Overcast
11:54 PM - - N/A% 30.00 in 10.0 mi ENE 5.8 mph - 0.01 in   Overcast